Location: Newark
(43.0000°N, 1.6781°W)
Time: 09:47:47
(UTC+00:00)

AO-7 - Pass Details

Date: 08 December 2022
Orbit: 1440 x 1459 km, 101.9° (Epoch: 28 January)

Event Time Altitude Azimuth Distance (km) Brightness Sun altitude
Rises 03:43:33 0° 26° (NNE) 4,545 ? -39.6°
Reaches altitude 10° 03:46:48 10° 36° (NE) 3,565 ? -39.0°
Maximum altitude 03:53:58 31° 96° (E) 2,314 ? -37.7°
Drops below altitude 10° 04:01:04 10° 156° (SSE) 3,559 ? -36.4°
Sets 04:04:17 0° 166° (SSE) 4,536 ? -35.9°
